Location: Puketoi
(40.5833°S, 176.0167°E)
Time: 13:47:22
(UTC+00:00)

Nadezhda 4 Rocket - Pass Details

Date: 08 February 2023
Orbit: 948 x 993 km, 82.9° (Epoch: 22 March)

Event Time Altitude Azimuth Distance (km) Brightness Sun altitude
Rises 15:40:20 0° 189° (S) 3,699 7.5 -19.1°
Reaches altitude 10° 15:42:51 10° 189° (S) 2,752 6.8 -18.8°
Maximum altitude 15:49:10 81° 274° (W) 1,007 3.9 -17.8°
Drops below altitude 10° 15:55:29 10° 1° (N) 2,746 6.0 -16.9°
Enters shadow 15:56:27 - 1° (N) 3,110 6.3 -16.8°
